Location: El Escondido
(32.5691°N, 116.4250°W)
Time: 10:31:44
(UTC+00:00)

Cosmos 1461 - Pass Details

Date: 13 April 2024
Orbit: 499 x 586 km, 65.0° (Epoch: 22 May)

Event Time Altitude Azimuth Distance (km) Brightness Sun altitude
Rises 12:20:00 0° 321° (NW) 2,595 6.1 -12.6°
Reaches altitude 10° 12:22:18 10° 312° (NW) 1,703 5.1 -12.1°
Maximum altitude 12:25:44 34° 247° (WSW) 843 3.2 -11.4°
Drops below altitude 10° 12:29:10 10° 182° (S) 1,696 5.1 -10.8°
Sets 12:31:27 0° 172° (S) 2,582 6.1 -10.3°
